Location: Unspecified
(44.0704°N, 88.6889°W)
Time: 10:32:52
(UTC+02:00)

Vanguard 2 Rocket - Pass Details

Date: 13 August 2020
Orbit: 554 x 3326 km, 32.9° (Epoch: 22 September)

Event Time Altitude Azimuth Distance (km) Brightness Sun altitude
Rises 05:27:23 0° 266° (W) 4,439 10.9 -21.9°
Reaches altitude 10° 05:30:16 10° 257° (WSW) 3,791 10.4 -22.2°
Maximum altitude 05:39:20 34° 198° (SSW) 3,212 9.3 -23.2°
Enters shadow 05:44:09 28° 167° (SSE) 3,881 9.5 -23.8°
